カタログに戻る

CZ-6A DEB

運用中SSO
NORAD 56649·DEBRIS·🇨🇳 China

打ち上げ Nov 11, 2022 から Taiyuan Satellite Launch Center

Loading…

次のパス (今後24時間)

TLE

最新Source: Space-Track

元期: Sep 12, 2026, 23:11 UTC

1 56649U 22151AFZ 26255.96629848  .00001210  00000-0  61009-3 0  9996
2 56649  98.8333 265.0868 0040800  69.0943 291.4592 14.17775725183295

AllMySatでCZ-6A DEBをリアルタイム追跡

Download on the App Store